Location: Sungai Liu
(2.3667°N, 113.8667°E)
Time: 11:58:09
(UTC+00:00)

CZ-2C R/B - Pass Details

Date: 20 May 2022
Orbit: 381 x 549 km, 35.0° (Epoch: 04 July)

Event Time Altitude Azimuth Distance (km) Brightness Sun altitude
Exits shadow 20:54:37 47° 183° (S) 596 1.3 -19.4°
Maximum altitude 20:55:14 55° 142° (SE) 541 1.3 -19.2°
Drops below altitude 10° 20:58:50 10° 64° (ENE) 1,611 5.0 -18.4°
Sets 21:01:06 0° 60° (ENE) 2,520 6.4 -17.9°
